Location: Springfield
(37.2150°N, 93.2980°W)
Time: 01:58:56
(UTC-06:00)

Daily predictions for brighter satellites

Satellite Brightness Start Highest point End
(mag) Time Altitude Azimuth Time Altitude Azimuth Time Altitude Azimuth
CZ-3 R/B 4.4 02:28:10 10° W 03:30:21 51° SSW 03:40:48 10° SE
SL-16 R/B 4.3 03:57:16 22° ENE 03:57:16 22° ENE 04:00:27 10° ESE
USA 229 DEB 4.4 04:13:19 52° ENE 04:13:19 52° ENE 04:20:00 10° SE
USA 229 4.4 04:13:22 52° ENE 04:13:22 52° ENE 04:20:05 10° SE
DELTA 2 R/B (1) 3.9 05:04:53 53° S 05:05:30 57° SSE 05:10:57 10° ENE
COSMO-SKYMED 1 3.3 05:09:45 10° SSE 05:13:56 51° ENE 05:16:07 26° N
Cosmos 1538 Rocket 4.4 05:13:23 25° N 05:16:27 62° ENE 05:21:43 10° SSE
Cosmos 304 Rocket 3.6 05:22:03 76° WSW 05:22:03 76° WSW 05:26:49 10° S
Cosmos 2233 Rocket 3.9 05:17:46 10° SSW 05:23:57 67° W 05:30:15 10° N
Ariane Rocket 4.0 05:19:58 10° NNE 05:24:54 47° E 05:29:47 10° S
Cosmos 2227 4.2 05:22:49 10° SSW 05:28:25 81° ESE 05:34:03 10° NNE
Cosmos 1500 Rocket 3.4 05:28:40 72° WNW 05:28:48 73° W 05:33:14 10° S
GPS 2-05 Rocket1 3.6 05:30:13 47° ESE 05:30:13 47° ESE 05:32:45 10° E
CZ-3 Stage 3 2.7 05:28:58 34° SW 05:30:15 42° S 05:41:32 10° ESE
Cosmos 1328 3.6 05:31:01 79° SW 05:31:01 79° SW 05:34:52 10° S
Cosmos 2237 Rocket 4.3 05:38:03 11° SW 05:38:03 11° SW 05:38:15 10° SW
SeaSat 1 4.4 05:35:44 10° N 05:36:52 15° NNW 05:36:52 15° NNW
OAO 2 Rocket 3.5 05:38:34 42° WSW 05:39:49 55° SSW 05:44:37 10° ESE
SL-16 R/B 2.4 05:39:13 41° WNW 05:40:12 45° WSW 05:45:33 10° S
ISS -2.8 05:41:57 49° S 05:41:57 49° S 05:44:38 10° SE
Cosmos 2346 Rocket 4.4 05:37:22 10° NNW 05:43:22 60° W 05:49:17 10° S
Thor Agena Rocket 4.4 05:38:41 10° SSW 05:42:30 31° WSW 05:42:30 31° WSW
SKYMED 3 4.4 05:39:38 10° S 05:43:56 71° WSW 05:46:30 24° NNW
DMSP B5D1-3 4.5 05:39:16 10° SSE 05:44:23 86° ENE 05:49:31 10° NNW
Cosmos 2297 Rocket 4.1 05:47:14 14° NNW 05:47:14 14° NNW 05:48:28 10° NNW
Cosmos 968 Rocket 4.0 05:46:56 36° WNW 05:46:58 36° WNW 05:51:50 10° N
Cosmos 1703 3.9 05:50:38 10° N 05:54:29 55° E 05:58:20 10° SSE
Meteor 1-28 Rocket 3.0 05:54:16 10° S 05:58:01 75° W 06:01:21 13° NNW
Gbstr 26 Del rocket 4.5 05:54:16 10° SSW 05:59:16 52° SE 06:05:30 10° ENE
Cosmos 1271 Rocket 3.0 05:57:35 10° SSW 06:01:11 40° WNW 06:04:46 10° N
SKYMED 2 3.9 05:57:55 10° S 06:02:01 42° W 06:04:45 19° NW
Cosmos 2344 4.2 05:54:36 10° SSW 06:02:08 59° ESE 06:10:10 10° NE
PSLV R/B 3.6 06:01:40 39° NW 06:02:27 48° N 06:05:45 10° ENE
Cosmos 773 Rocket 3.9 05:57:27 10° NNW 06:02:44 75° WSW 06:08:00 10° S
Cosmos 1626 2.9 05:59:33 10° N 06:03:14 52° E 06:06:51 10° SSE
BREEZE-M DEB (TANK) 4.2 05:53:31 17° WNW 06:04:04 50° WSW 06:08:18 10° SSE
Cosmos 2058 2.9 06:00:41 10° NNW 06:04:40 57° W 06:08:43 10° S
Meteor 1-16 Rocket 4.5 06:00:23 10° SW 06:05:27 40° WNW 06:10:27 10° N
Atlas 2A Centaur Rocket 4.0 06:04:35 10° SW 06:06:25 13° S 06:07:44 10° SSE
Meteor 2-12 Rocket 4.4 06:02:49 10° SSW 06:08:54 67° W 06:15:03 10° N
YAOGAN 1 4.4 06:05:10 10° NNE 06:09:08 34° E 06:13:04 10° SSE
Meteor 1-11 4.4 06:05:14 10° NNW 06:10:52 52° W 06:16:27 10° SSW
Cosmos 1184 Rocket 3.4 06:10:00 10° N 06:13:16 59° E 06:16:32 10° SSE
Cosmos 1340 Rocket 3.1 06:10:40 13° NNW 06:13:52 43° W 06:17:38 10° SSW
Cosmos 2221 2.7 06:09:55 10° SSW 06:14:05 46° W 06:18:15 10° N
Milstar 3 Cent rocket 4.3 06:10:33 10° SW 06:16:58 25° S 06:21:20 10° ESE
Cosmos 1464 Rocket 4.1 06:11:16 10° SSW 06:17:27 57° W 06:23:38 10° N
NOSS 3-1 (A) 4.1 06:10:01 10° NW 06:17:48 79° WSW 06:26:15 10° SSE
Cosmos 292 Rocket 3.7 06:13:16 10° NNW 06:18:05 89° E 06:22:52 10° SSE
SL-14 R/B 4.3 06:17:06 19° NW 06:18:54 26° W 06:22:17 10° SSW
Cosmos 1666 Rocket 3.7 06:15:52 10° N 06:20:21 79° E 06:24:50 10° S
Cosmos 1943 3.7 06:15:45 10° NNW 06:21:25 63° ENE 06:27:02 10° SSE
APEX 3.9 06:21:32 10° S 06:25:36 55° ESE 06:28:50 10° NNE
ATLAS 2AS CENTAUR R/B 4.1 06:18:50 10° NNW 06:26:24 42° NE 06:33:29 10° ESE
SMAP 3.5 06:22:35 10° NNE 06:27:14 67° ESE 06:31:51 10° S
Cosmos 1356 Rocket 3.4 06:23:26 10° NNW 06:27:30 62° W 06:31:37 10° S
Helios 1B rocket 3.8 06:24:26 10° SE 06:28:14 39° ENE 06:32:05 10° N
Tiangong 2 0.9 06:25:45 15° WSW 06:28:16 79° NNW 06:31:24 10° ENE
ERBS 3.6 06:33:13 15° WNW 06:35:13 25° SW 06:38:04 10° S
CSL-04 Debris 4.3 06:30:08 10° N 06:35:28 53° WNW 06:40:43 10° SSW
Cosmos 2151 4.5 06:36:01 11° NW 06:38:31 17° W 06:41:15 10° SW
USA 234 3.9 06:34:25 10° ESE 06:40:46 54° NE 06:47:08 10° NW
SPOT 3 Rocket 3.9 06:36:04 10° NNE 06:41:18 75° ESE 06:46:30 10° S
Cosmos 2263 Rocket 2.2 06:36:35 10° SSW 06:42:15 80° WNW 06:47:58 10° NNE
Cosmos 1603 4.3 06:39:18 10° NW 06:44:24 36° WSW 06:49:30 10° S
IRS-1A Rocket 4.4 06:40:22 10° N 06:46:08 58° WNW 06:51:46 10° SSW
Cosmos 1908 3.4 06:44:21 10° SSW 06:48:02 48° W 06:51:46 10° N
COSMO-SKYMED 1 4.4 06:48:39 10° WSW 06:50:22 12° W 06:52:05 10° WNW
SJ-12 4.2 06:46:58 10° N 06:50:52 45° WNW 06:54:45 10° SSW
DELTA 2 R/B (1) 3.6 06:46:23 10° W 06:51:56 74° N 06:57:31 10° ENE
Cosmos 1470 Rocket 3.9 06:48:38 10° N 06:52:58 71° E 06:57:17 10° SSE
CZ-2C R/B 2.5 06:53:38 10° N 06:58:01 47° WNW 07:02:23 10° SW
CZ-4 R/B 2.0 06:55:34 10° N 06:59:19 37° WNW 07:03:07 10° SW
Meteor 1-29 3.3 06:55:55 10° SSE 06:59:23 72° ENE 07:02:53 10° N
IDEFIX/ARIANE 42P 2.8 06:55:39 10° N 07:00:44 50° WNW 07:05:47 10° SSW
